Regional Weather Roundup
Issued by NWS Little Rock, AR

Home | Current Version | Previous Version | Graphics & Text | Print | Product List | Glossary On
Versions: 1 2 3 4 5 6 7 8 9 10 11 12 13 14 15 16 17 18 19 20 21 22 23 24 25 26 27 28 29 30 31 32 33 34 35 36 37 38 39 40 41 42 43 44 45 46 47 48 49 50
000
ASUS44 KLZK 131905
RWRLZK

WEATHER ROUNDUP FOR ARKANSAS
NATIONAL WEATHER SERVICE LITTLE ROCK AR
200 PM CDT SUN JUL 13 2014

NOTE: "FAIR" INDICATES FEW OR NO CLOUDS BELOW 12,000 FEET WITH NO
SIGNIFICANT WEATHER AND/OR OBSTRUCTIONS TO VISIBILITY.

ARZ001-003-010-029-132000-
NORTHWEST ARKANSAS

CITY           SKY/WX    TMP DP  RH WIND       PRES   REMARKS
FAYETTEVILLE   SUNNY     91  71  51 SW12G21   30.05F HX  97
FORT SMITH     SUNNY     93  73  52 S10       30.02F HX 102
HARRISON       SUNNY     91  68  46 SW8       30.06F HX  95
BENTONVILLE    SUNNY     91  66  43 SW12      30.05F HX  94
ROGERS         SUNNY     92  64  39 SW8G24    30.05F HX  93
SILOAM SPGS    SUNNY     93  68  43 S15       30.04F HX  97
HIGHFILL       SUNNY     92  68  45 SW10      30.03F HX  96
SPRINGDALE     SUNNY     91  66  43 SW12G23   30.07F HX  94
$$

ARZ004-005-016-132000-
NORTH CENTRAL ARKANSAS

CITY           SKY/WX    TMP DP  RH WIND       PRES   REMARKS
BATESVILLE     MOSUNNY   91  73  55 S6        30.03F HX 100
FLIPPIN          N/A     93  66  40 S5        30.03F HX  96
MTN HOME       MOSUNNY   90  74  59 CALM      30.03F HX  99
$$

ARZ040-041-132000-
WEST CENTRAL ARKANSAS

CITY           SKY/WX    TMP DP  RH WIND       PRES   REMARKS
MENA           SUNNY     93  68  43 W10       30.08F HX  97
MOUNT IDA      SUNNY     91  70  49 VRB5      30.05F HX  96
$$

ARZ009-017-025-026-028-132000-
NORTHEAST ARKANSAS

CITY           SKY/WX    TMP DP  RH WIND       PRES   REMARKS
CORNING        LGT RAIN  91  73  55 W10       30.02S HX 100
JONESBORO      MOSUNNY   91  73  55 SW12      30.03F HX  99
NEWPORT        MOSUNNY   94  75  53 SW9       30.04F HX 105
WALNUT RIDGE     N/A     91  72  52 SW9       30.00F HX  98
BLYTHEVILLE    MOSUNNY   93  73  52 SW10      30.02F HX 102
$$

ARZ022-023-033-042-044-132000-
CENTRAL ARKANSAS

CITY           SKY/WX    TMP DP  RH WIND       PRES   REMARKS
LITTLE ROCK    MOSUNNY   94  71  47 SW10      30.04F HX 101
N LITTLE ROCK  MOSUNNY   92  74  54 SW6       30.04F HX 102
JACKSONVILLE   MOSUNNY   94  74  52 SW6       30.04F HX 103
SEARCY         SUNNY     94  73  50 SW8       30.04F HX 103
HOT SPRINGS    SUNNY     94  71  47 S6        30.05F HX 101
RUSSELLVILLE   SUNNY     92  72  51 MISG      30.03F HX  99
CLINTON        FAIR      91  72  52 W8        30.04F HX  98
$$

ARZ036-132000-
EAST ARKANSAS

CITY           SKY/WX    TMP DP  RH WIND       PRES   REMARKS
WEST MEMPHIS   SUNNY     91  77  63 SW7       30.03F HX 104
$$

ARZ050-053-066-070-073-132000-
SOUTHWEST ARKANSAS

CITY           SKY/WX    TMP DP  RH WIND       PRES   REMARKS
ARKADELPHIA    FAIR      96  74  49 VRB6      30.04F HX 106
CAMDEN         SUNNY     97  66  36 W5        30.04F HX 100
TEXARKANA      SUNNY     96  68  39 S9        30.05F HX 101
EL DORADO      MOSUNNY   94  71  47 VRB3      30.05F HX 101
DE QUEEN       SUNNY     92  72  51 W7        30.03F HX  99
$$

ARZ056-057-069-132000-
SOUTHEAST ARKANSAS

CITY           SKY/WX    TMP DP  RH WIND       PRES   REMARKS
PINE BLUFF     SUNNY     94  71  47 S5        30.05F HX 101
MONTICELLO     PTSUNNY   92  72  51 SE6       30.05F HX  99

$$





USA.gov is the U.S. government's official web portal to all federal, state and local government web resources and services.